Weather History for KMAE - December, 2012

Change the Weather History Date:

Friday, December 7, 2012

  Actual Average Record
Temperature  
Mean Temperature 57 °F 46 °F  
Max Temperature 62 °F 56 °F 68 °F (2014)
Min Temperature 52 °F 37 °F 28 °F (2011)
Degree Days  
Heating Degree Days 8    
Month to date heating degree days 54  
Since 1 July heating degree days 422  
Cooling Degree Days 0    
Month to date cooling degree days 0  
Year to date cooling degree days 1737  
Growing Degree Days 2 (Base 50)    
Moisture  
Dew Point 47 °F    
Average Humidity 75    
Maximum Humidity 89    
Minimum Humidity 60    
Precipitation  
Precipitation 0.00 in 0.05 in 0.62 in (2007)
Month to date precipitation 0.71 0.25  
Year to date precipitation 9.11 10.57  
Since 1 July precipitation 2.89 2.57  
Snow  
Snow 0.00 in - - ()
Month to date snowfall 0.0  
Since 1 July snowfall 0.0  
Snow Depth 0.00 in    
Sea Level Pressure  
Sea Level Pressure 30.10 in    
Wind  
Wind Speed 3 mph (WNW)    
Max Wind Speed 9 mph    
Max Gust Speed 10 mph    
Visibility 8 miles    
Events Fog    
T = Trace of Precipitation, MM = Missing Value Source: NWS Daily Summary

Daily Weather History Graph

Daily Weather History Graph

Search for Another Location

Airport or City:

Trip Planner

Search our weather history database for the weather conditions in past years. The results will help you decide how hot, cold, wet, or windy it might be!

Date:

Astronomy

Dec. 07, 2012 Rise Set
Actual Time 7:00 AM PST 4:43 PM PST
Civil Twilight 6:32 AM PST 5:12 PM PST
Nautical Twilight 5:59 AM PST 5:44 PM PST
Astronomical Twilight 5:28 AM PST 6:16 PM PST
Moon 12:33 AM PST (12/7) 12:36 PM PST (12/7)
Length of Visible Light 10h 40m
Length of Day
9h 42m
Last Quarter, 37% of the Moon is Illuminated
Dec 7
Last Quarter
Dec 13
New
Dec 19
First Quarter
Dec 28
Full
Jan 4
Last Quarter

Hourly Weather History & Observations

Time (PST) Temp. Dew Point Humidity Pressure Visibility Wind Dir Wind Speed Gust Speed Precip Events Conditions
12:08 AM 55.4 °F 48.2 °F 77% 30.11 in 10.0 mi West 5.8 mph - N/A   Overcast
12:53 AM 55.0 °F 48.9 °F 80% 30.10 in 10.0 mi NW 4.6 mph - N/A   Overcast
1:07 AM 53.6 °F 48.2 °F 82% 30.10 in 10.0 mi WNW 3.5 mph - N/A   Overcast
1:53 AM 54.0 °F 48.9 °F 83% 30.10 in 10.0 mi WNW 5.8 mph - N/A   Overcast
2:53 AM 54.0 °F 48.9 °F 83% 30.09 in 10.0 mi West 5.8 mph - N/A   Overcast
3:53 AM 54.0 °F 48.9 °F 83% 30.09 in 10.0 mi NW 3.5 mph - N/A   Overcast
4:53 AM 53.1 °F 48.9 °F 86% 30.10 in 10.0 mi WNW 3.5 mph - N/A   Overcast
5:53 AM 53.1 °F 48.9 °F 86% 30.11 in 10.0 mi West 4.6 mph - N/A   Overcast
6:53 AM 53.1 °F 48.9 °F 86% 30.11 in 10.0 mi WNW 5.8 mph - N/A   Overcast
7:53 AM 54.0 °F 50.0 °F 86% 30.12 in 10.0 mi Calm Calm - N/A   Mostly Cloudy
8:53 AM 54.0 °F 48.0 °F 80% 30.13 in 10.0 mi Calm Calm - N/A   Clear
9:53 AM 55.9 °F 48.9 °F 77% 30.15 in 10.0 mi NNW 3.5 mph - N/A   Overcast
10:53 AM 57.9 °F 48.9 °F 72% 30.14 in 10.0 mi North 3.5 mph - N/A   Overcast
11:53 AM 59.0 °F 48.0 °F 67% 30.12 in 10.0 mi Calm Calm - N/A   Clear
12:45 PM 60.8 °F 46.4 °F 59% 30.10 in 10.0 mi Calm Calm - N/A   Mostly Cloudy
12:53 PM 60.1 °F 46.9 °F 62% 30.09 in 10.0 mi Calm Calm - N/A   Mostly Cloudy
1:31 PM 60.8 °F 48.2 °F 63% 30.08 in 10.0 mi South 5.8 mph - N/A   Partly Cloudy
1:53 PM 61.0 °F 48.0 °F 62% 30.07 in 10.0 mi SW 3.5 mph - N/A   Clear
2:53 PM 61.0 °F 46.9 °F 60% 30.07 in 10.0 mi Calm Calm - N/A   Clear
3:53 PM 60.1 °F 46.9 °F 62% 30.07 in 10.0 mi WNW 4.6 mph - N/A   Clear
5:53 PM 52.0 °F 46.9 °F 83% 30.09 in 6.0 mi Calm Calm - N/A   Haze
6:53 PM 51.1 °F 48.0 °F 89% 30.09 in 4.0 mi Calm Calm - N/A   Clear
7:53 PM 48.9 °F 46.0 °F 90% 30.09 in 9.0 mi Calm Calm - N/A   Clear
8:53 PM 50.0 °F 46.9 °F 89% 30.09 in 6.0 mi ENE 3.5 mph - N/A   Clear
9:53 PM 48.0 °F 45.0 °F 89% 30.09 in 4.0 mi Calm Calm - N/A   Clear
10:51 PM 46.4 °F 44.6 °F 93% 30.09 in 2.5 mi Calm Calm - N/A   Clear
10:53 PM 45.0 °F 44.1 °F 97% 30.09 in 2.5 mi Calm Calm - N/A   Clear
11:10 PM 44.6 °F 44.6 °F 100% 30.09 in 1.2 mi Calm Calm - N/A   Clear
11:21 PM 44.6 °F 44.6 °F 100% 30.09 in 0.8 mi Calm Calm - N/A   Mist
11:53 PM 45.0 °F 43.0 °F 93% 30.08 in 0.2 mi Calm Calm - N/A Fog Fog